Time,TemperatureF,DewpointF,PressureIn,WindDirection,WindDirectionDegrees,WindSpeedMPH,WindSpeedGustMPH,Humidity,HourlyPrecipIn,Conditions,Clouds,dailyrainin,SoftwareType,DateUTC
2013-05-30 00:01:00,49.7,45.4,29.64,WSW,255,5.0,7.0,85,0.00,CLR,CLR,0.00,WeatherDisplay:10.34,2013-05-30 06:01:00,
2013-05-30 00:06:00,49.7,45.4,29.64,West,268,7.0,7.0,85,0.00,CLR,CLR,0.00,WeatherDisplay:10.34,2013-05-30 06:06:00,
2013-05-30 00:11:00,49.7,45.4,29.64,WNW,284,5.0,5.0,85,0.00,CLR,CLR,0.00,WeatherDisplay:10.34,2013-05-30 06:11:00,
2013-05-30 00:16:00,49.6,45.3,29.64,WNW,291,6.0,7.0,85,0.00,CLR,CLR,0.00,WeatherDisplay:10.34,2013-05-30 06:16:00,
2013-05-30 00:21:00,49.6,45.3,29.64,NW,317,7.0,8.0,85,0.00,CLR,CLR,0.00,WeatherDisplay:10.34,2013-05-30 06:21:00,
2013-05-30 00:26:00,49.7,45.1,29.64,NW,315,7.0,7.0,84,0.00,CLR,CLR,0.00,WeatherDisplay:10.34,2013-05-30 06:26:00,
2013-05-30 00:31:00,49.7,45.4,29.63,WNW,295,4.0,5.0,85,0.00,CLR,CLR,0.00,WeatherDisplay:10.34,2013-05-30 06:31:00,
2013-05-30 00:36:00,49.6,45.3,29.63,NNW,333,6.0,7.0,85,0.00,CLR,CLR,0.00,WeatherDisplay:10.34,2013-05-30 06:36:00,
2013-05-30 00:41:00,49.6,45.3,29.63,NNW,328,5.0,7.0,85,0.00,CLR,CLR,0.00,WeatherDisplay:10.34,2013-05-30 06:41:00,
2013-05-30 00:46:00,49.5,45.2,29.63,NNW,328,5.0,8.0,85,0.00,CLR,CLR,0.00,WeatherDisplay:10.34,2013-05-30 06:46:00,
2013-05-30 00:51:00,49.5,45.2,29.63,WNW,289,4.0,4.0,85,0.00,CLR,CLR,0.00,WeatherDisplay:10.34,2013-05-30 06:51:00,
2013-05-30 00:56:00,49.4,45.4,29.63,West,277,0.0,1.0,86,0.00,CLR,CLR,0.00,WeatherDisplay:10.34,2013-05-30 06:56:00,
2013-05-30 01:01:00,49.4,45.1,29.63,West,281,0.0,1.0,85,0.00,CLR,CLR,0.00,WeatherDisplay:10.34,2013-05-30 07:01:00,
2013-05-30 01:06:00,49.4,45.1,29.63,West,281,3.0,3.0,85,0.00,CLR,CLR,0.00,WeatherDisplay:10.34,2013-05-30 07:06:00,
2013-05-30 01:11:00,49.4,45.4,29.62,WSW,237,4.0,4.0,86,0.00,CLR,CLR,0.00,WeatherDisplay:10.34,2013-05-30 07:11:00,
2013-05-30 01:16:00,49.4,45.4,29.62,WSW,237,3.0,3.0,86,0.00,CLR,CLR,0.00,WeatherDisplay:10.34,2013-05-30 07:16:00,
2013-05-30 01:21:00,49.3,45.3,29.62,WSW,237,1.0,2.0,86,0.00,CLR,CLR,0.00,WeatherDisplay:10.34,2013-05-30 07:21:00,
2013-05-30 01:26:00,49.3,45.0,29.62,WSW,241,0.0,1.0,85,0.00,CLR,CLR,0.00,WeatherDisplay:10.34,2013-05-30 07:26:00,
2013-05-30 01:31:00,49.2,44.9,29.62,WSW,241,0.0,0.0,85,0.00,CLR,CLR,0.00,WeatherDisplay:10.34,2013-05-30 07:31:00,
2013-05-30 01:36:00,49.3,45.0,29.62,SW,214,2.0,2.0,85,0.00,CLR,CLR,0.00,WeatherDisplay:10.34,2013-05-30 07:36:00,
2013-05-30 01:41:00,49.4,44.8,29.61,ESE,107,0.0,1.0,84,0.00,CLR,CLR,0.00,WeatherDisplay:10.34,2013-05-30 07:41:00,
2013-05-30 01:46:00,49.4,44.8,29.61,ESE,106,0.0,0.0,84,0.00,CLR,CLR,0.00,WeatherDisplay:10.34,2013-05-30 07:46:00,
2013-05-30 01:51:00,49.3,44.7,29.61,SSW,209,5.0,5.0,84,0.00,CLR,CLR,0.00,WeatherDisplay:10.34,2013-05-30 07:51:00,
2013-05-30 01:56:00,49.4,44.8,29.61,SSW,198,0.0,2.0,84,0.00,CLR,CLR,0.00,WeatherDisplay:10.34,2013-05-30 07:56:00,
2013-05-30 02:01:00,49.4,44.8,29.61,SSW,198,0.0,0.0,84,0.00,CLR,CLR,0.00,WeatherDisplay:10.34,2013-05-30 08:01:00,
2013-05-30 02:06:00,49.4,44.8,29.61,SSW,201,1.0,1.0,84,0.00,CLR,CLR,0.00,WeatherDisplay:10.34,2013-05-30 08:06:00,
2013-05-30 02:11:00,49.3,44.7,29.60,SSW,201,3.0,3.0,84,0.00,CLR,CLR,0.00,WeatherDisplay:10.34,2013-05-30 08:11:00,
2013-05-30 02:16:00,49.2,44.6,29.60,SSW,201,0.0,0.0,84,0.00,CLR,CLR,0.00,WeatherDisplay:10.34,2013-05-30 08:16:00,
2013-05-30 02:21:00,49.2,44.6,29.60,SSW,201,0.0,0.0,84,0.00,CLR,CLR,0.00,WeatherDisplay:10.34,2013-05-30 08:21:00,
2013-05-30 02:26:00,49.1,44.5,29.60,SSW,201,0.0,0.0,84,0.00,CLR,CLR,0.00,WeatherDisplay:10.34,2013-05-30 08:26:00,
2013-05-30 02:31:00,49.1,44.5,29.60,SSW,200,0.0,1.0,84,0.00,CLR,CLR,0.00,WeatherDisplay:10.34,2013-05-30 08:31:00,
2013-05-30 02:36:00,49.0,44.4,29.60,SSW,201,0.0,1.0,84,0.00,CLR,CLR,0.00,WeatherDisplay:10.34,2013-05-30 08:36:00,
2013-05-30 02:41:00,49.0,44.4,29.60,SSW,201,0.0,0.0,84,0.00,CLR,CLR,0.00,WeatherDisplay:10.34,2013-05-30 08:41:00,
2013-05-30 02:46:00,48.9,44.6,29.60,SSW,201,0.0,1.0,85,0.00,CLR,CLR,0.00,WeatherDisplay:10.34,2013-05-30 08:46:00,
2013-05-30 02:51:00,48.9,44.6,29.60,SSW,201,0.0,2.0,85,0.00,CLR,CLR,0.00,WeatherDisplay:10.34,2013-05-30 08:51:00,
2013-05-30 02:56:00,48.9,44.6,29.60,SSW,201,1.0,1.0,85,0.00,CLR,CLR,0.00,WeatherDisplay:10.34,2013-05-30 08:56:00,
2013-05-30 03:01:00,48.8,44.5,29.60,SSW,201,0.0,0.0,85,0.00,CLR,CLR,0.00,WeatherDisplay:10.34,2013-05-30 09:01:00,
2013-05-30 03:06:00,48.8,44.5,29.60,SSW,200,0.0,0.0,85,0.00,CLR,CLR,0.00,WeatherDisplay:10.34,2013-05-30 09:06:00,
2013-05-30 03:11:00,48.8,44.5,29.60,SSW,200,0.0,0.0,85,0.00,CLR,CLR,0.00,WeatherDisplay:10.34,2013-05-30 09:11:00,
2013-05-30 03:16:00,48.9,44.6,29.60,SSW,200,1.0,1.0,85,0.00,CLR,CLR,0.00,WeatherDisplay:10.34,2013-05-30 09:16:00,
2013-05-30 03:21:00,48.9,44.9,29.60,SSW,201,1.0,1.0,86,0.00,CLR,CLR,0.00,WeatherDisplay:10.34,2013-05-30 09:21:00,
2013-05-30 03:26:00,48.9,44.9,29.60,SSW,201,1.0,2.0,86,0.00,CLR,CLR,0.00,WeatherDisplay:10.34,2013-05-30 09:26:00,
2013-05-30 03:31:00,48.8,44.8,29.60,SSW,201,0.0,1.0,86,0.00,CLR,CLR,0.00,WeatherDisplay:10.34,2013-05-30 09:31:00,
2013-05-30 03:36:00,48.8,44.8,29.60,SSW,201,0.0,0.0,86,0.00,CLR,CLR,0.00,WeatherDisplay:10.34,2013-05-30 09:36:00,
2013-05-30 03:41:00,48.8,44.8,29.60,SSW,201,0.0,1.0,86,0.00,CLR,CLR,0.00,WeatherDisplay:10.34,2013-05-30 09:41:00,
2013-05-30 03:46:00,48.8,44.8,29.60,SSW,201,3.0,3.0,86,0.00,CLR,CLR,0.00,WeatherDisplay:10.34,2013-05-30 09:46:00,
2013-05-30 03:51:00,48.8,45.1,29.60,SSW,200,1.0,1.0,87,0.00,CLR,CLR,0.00,WeatherDisplay:10.34,2013-05-30 09:51:00,
2013-05-30 03:56:00,48.8,45.1,29.60,SSW,200,2.0,2.0,87,0.00,CLR,CLR,0.00,WeatherDisplay:10.34,2013-05-30 09:56:00,
2013-05-30 04:01:00,48.8,45.1,29.60,SSW,201,2.0,2.0,87,0.00,CLR,CLR,0.00,WeatherDisplay:10.34,2013-05-30 10:01:00,
2013-05-30 04:06:00,48.8,45.1,29.60,SSW,201,0.0,1.0,87,0.00,CLR,CLR,0.00,WeatherDisplay:10.34,2013-05-30 10:06:00,
2013-05-30 04:11:00,48.8,45.1,29.60,SSW,201,2.0,2.0,87,0.00,CLR,CLR,0.00,WeatherDisplay:10.34,2013-05-30 10:11:00,
2013-05-30 04:16:00,48.8,45.1,29.60,SSW,201,0.0,0.0,87,0.00,CLR,CLR,0.00,WeatherDisplay:10.34,2013-05-30 10:16:00,
2013-05-30 04:21:00,48.8,45.1,29.60,SSW,200,0.0,0.0,87,0.00,CLR,CLR,0.00,WeatherDisplay:10.34,2013-05-30 10:21:00,
2013-05-30 04:26:00,48.8,45.1,29.60,SSW,200,3.0,3.0,87,0.00,CLR,CLR,0.00,WeatherDisplay:10.34,2013-05-30 10:26:00,
2013-05-30 04:31:00,48.8,45.1,29.60,SSW,200,1.0,1.0,87,0.00,CLR,CLR,0.00,WeatherDisplay:10.34,2013-05-30 10:31:00,
2013-05-30 04:36:00,48.7,45.0,29.60,SSW,200,3.0,3.0,87,0.00,CLR,CLR,0.00,WeatherDisplay:10.34,2013-05-30 10:36:00,
2013-05-30 04:41:00,48.7,45.0,29.60,SW,223,5.0,5.0,87,0.00,CLR,CLR,0.00,WeatherDisplay:10.34,2013-05-30 10:41:00,
2013-05-30 04:46:00,48.6,44.9,29.60,SW,223,0.0,1.0,87,0.00,CLR,CLR,0.00,WeatherDisplay:10.34,2013-05-30 10:46:00,
2013-05-30 04:51:00,48.6,44.9,29.60,SW,223,0.0,0.0,87,0.00,CLR,CLR,0.00,WeatherDisplay:10.34,2013-05-30 10:51:00,
2013-05-30 04:56:00,48.6,44.9,29.60,SW,223,0.0,1.0,87,0.00,CLR,CLR,0.00,WeatherDisplay:10.34,2013-05-30 10:56:00,
2013-05-30 05:01:00,48.6,44.9,29.60,SW,223,0.0,0.0,87,0.00,OVC,OVC,0.00,WeatherDisplay:10.34,2013-05-30 11:01:00,
2013-05-30 05:06:00,48.7,45.0,29.60,WSW,238,1.0,3.0,87,0.00,OVC,OVC,0.00,WeatherDisplay:10.34,2013-05-30 11:06:00,
2013-05-30 05:11:00,48.7,44.7,29.60,WSW,238,3.0,3.0,86,0.00,OVC,OVC,0.00,WeatherDisplay:10.34,2013-05-30 11:11:00,
2013-05-30 05:16:00,48.9,44.9,29.60,SW,229,2.0,2.0,86,0.00,OVC,OVC,0.00,WeatherDisplay:10.34,2013-05-30 11:16:00,
2013-05-30 05:21:00,49.0,45.0,29.60,SW,229,0.0,0.0,86,0.00,OVC,OVC,0.00,WeatherDisplay:10.34,2013-05-30 11:21:00,
2013-05-30 05:26:00,49.0,45.0,29.60,SW,229,0.0,0.0,86,0.00,OVC,OVC,0.00,WeatherDisplay:10.34,2013-05-30 11:26:00,
2013-05-30 05:31:00,49.1,45.4,29.61,SW,229,3.0,3.0,87,0.00,OVC,OVC,0.00,WeatherDisplay:10.34,2013-05-30 11:31:00,
2013-05-30 05:36:00,49.1,45.4,29.61,SW,229,0.0,0.0,87,0.00,OVC,OVC,0.00,WeatherDisplay:10.34,2013-05-30 11:36:00,
2013-05-30 05:41:00,49.1,45.4,29.61,SW,229,1.0,2.0,87,0.00,OVC,OVC,0.00,WeatherDisplay:10.34,2013-05-30 11:41:00,
2013-05-30 05:46:00,49.0,45.3,29.61,SW,229,3.0,3.0,87,0.00,OVC,OVC,0.00,WeatherDisplay:10.34,2013-05-30 11:46:00,
2013-05-30 05:51:00,49.0,45.3,29.61,SW,229,4.0,4.0,87,0.00,OVC,OVC,0.00,WeatherDisplay:10.34,2013-05-30 11:51:00,
2013-05-30 05:56:00,48.9,45.2,29.61,SW,229,3.0,3.0,87,0.00,OVC,OVC,0.00,WeatherDisplay:10.34,2013-05-30 11:56:00,
2013-05-30 06:01:00,48.9,45.2,29.61,West,267,4.0,7.0,87,0.00,OVC,OVC,0.00,WeatherDisplay:10.34,2013-05-30 12:01:00,
2013-05-30 06:06:00,49.0,45.0,29.61,WSW,246,5.0,7.0,86,0.00,OVC,OVC,0.00,WeatherDisplay:10.34,2013-05-30 12:06:00,
2013-05-30 06:11:00,49.2,44.9,29.61,West,264,5.0,5.0,85,0.00,CLR,CLR,0.00,WeatherDisplay:10.34,2013-05-30 12:11:00,
2013-05-30 06:16:00,49.2,44.9,29.61,West,265,2.0,2.0,85,0.01,RA,RA,0.01,WeatherDisplay:10.34,2013-05-30 12:16:00,
2013-05-30 06:21:00,49.3,45.0,29.61,West,265,3.0,3.0,85,0.01,RA,RA,0.01,WeatherDisplay:10.34,2013-05-30 12:21:00,
2013-05-30 06:26:00,49.4,45.1,29.61,West,265,1.0,2.0,85,0.01,SCT,SCT,0.01,WeatherDisplay:10.34,2013-05-30 12:26:00,
2013-05-30 06:31:00,49.4,45.1,29.61,WNW,297,7.0,8.0,85,0.01,SCT,SCT,0.01,WeatherDisplay:10.34,2013-05-30 12:31:00,
2013-05-30 06:36:00,49.5,45.2,29.61,WNW,286,2.0,3.0,85,0.01,BKN,BKN,0.01,WeatherDisplay:10.34,2013-05-30 12:36:00,
2013-05-30 06:41:00,49.5,45.2,29.61,West,276,1.0,1.0,85,0.01,BKN,BKN,0.01,WeatherDisplay:10.34,2013-05-30 12:41:00,
2013-05-30 06:46:00,49.5,45.2,29.61,NNW,338,7.0,8.0,85,0.01,BKN,BKN,0.01,WeatherDisplay:10.34,2013-05-30 12:46:00,
2013-05-30 06:51:00,49.6,45.3,29.61,NW,320,3.0,3.0,85,0.01,BKN,BKN,0.01,WeatherDisplay:10.34,2013-05-30 12:51:00,
2013-05-30 06:56:00,49.6,45.3,29.61,NW,325,3.0,3.0,85,0.01,BKN,BKN,0.01,WeatherDisplay:10.34,2013-05-30 12:56:00,
2013-05-30 07:01:00,49.6,45.3,29.62,NW,320,3.0,5.0,85,0.01,BKN,BKN,0.01,WeatherDisplay:10.34,2013-05-30 13:01:00,
2013-05-30 07:06:00,49.6,45.3,29.62,NW,312,0.0,0.0,85,0.01,OVC,OVC,0.01,WeatherDisplay:10.34,2013-05-30 13:06:00,
2013-05-30 07:11:00,49.6,45.3,29.62,West,279,0.0,2.0,85,0.01,BKN,BKN,0.01,WeatherDisplay:10.34,2013-05-30 13:11:00,
2013-05-30 07:16:00,49.7,45.4,29.62,West,279,1.0,1.0,85,0.00,OVC,OVC,0.01,WeatherDisplay:10.34,2013-05-30 13:16:00,
2013-05-30 07:21:00,49.8,45.5,29.62,West,279,1.0,1.0,85,0.00,OVC,OVC,0.01,WeatherDisplay:10.34,2013-05-30 13:21:00,
2013-05-30 07:26:00,49.8,45.5,29.62,West,281,3.0,3.0,85,0.00,OVC,OVC,0.01,WeatherDisplay:10.34,2013-05-30 13:26:00,
2013-05-30 07:31:00,49.9,45.6,29.62,WNW,295,3.0,3.0,85,0.00,OVC,OVC,0.01,WeatherDisplay:10.34,2013-05-30 13:31:00,
2013-05-30 07:36:00,49.9,45.6,29.62,North,355,8.0,8.0,85,0.00,OVC,OVC,0.01,WeatherDisplay:10.34,2013-05-30 13:36:00,
2013-05-30 07:41:00,49.9,45.3,29.62,NNW,334,0.0,0.0,84,0.00,OVC,OVC,0.01,WeatherDisplay:10.34,2013-05-30 13:41:00,
2013-05-30 07:46:00,49.9,45.3,29.62,WNW,283,2.0,2.0,84,0.00,OVC,OVC,0.01,WeatherDisplay:10.34,2013-05-30 13:46:00,
2013-05-30 07:51:00,50.0,45.4,29.62,West,275,2.0,2.0,84,0.00,OVC,OVC,0.01,WeatherDisplay:10.34,2013-05-30 13:51:00,
2013-05-30 07:56:00,50.1,45.5,29.62,NW,325,5.0,8.0,84,0.00,OVC,OVC,0.01,WeatherDisplay:10.34,2013-05-30 13:56:00,
2013-05-30 08:01:00,50.2,45.2,29.62,West,260,8.0,8.0,83,0.00,OVC,OVC,0.01,WeatherDisplay:10.34,2013-05-30 14:01:00,
2013-05-30 08:06:00,50.2,44.9,29.62,WNW,295,6.0,8.0,82,0.00,OVC,OVC,0.01,WeatherDisplay:10.34,2013-05-30 14:06:00,
2013-05-30 08:11:00,50.2,44.6,29.63,NNW,333,7.0,10.0,81,0.00,OVC,OVC,0.01,WeatherDisplay:10.34,2013-05-30 14:11:00,
2013-05-30 08:16:00,50.2,44.6,29.63,NW,316,6.0,8.0,81,0.00,OVC,OVC,0.01,WeatherDisplay:10.34,2013-05-30 14:16:00,
2013-05-30 08:21:00,50.2,44.3,29.63,NW,315,4.0,8.0,80,0.00,OVC,OVC,0.01,WeatherDisplay:10.34,2013-05-30 14:21:00,
2013-05-30 08:26:00,50.3,44.7,29.63,NW,314,1.0,3.0,81,0.00,OVC,OVC,0.01,WeatherDisplay:10.34,2013-05-30 14:26:00,
2013-05-30 08:31:00,50.4,44.8,29.63,WNW,303,4.0,5.0,81,0.00,OVC,OVC,0.01,WeatherDisplay:10.34,2013-05-30 14:31:00,
2013-05-30 08:36:00,50.5,44.9,29.63,NW,313,1.0,3.0,81,0.00,OVC,OVC,0.01,WeatherDisplay:10.34,2013-05-30 14:36:00,
2013-05-30 08:41:00,50.5,44.6,29.64,NW,318,2.0,2.0,80,0.00,OVC,OVC,0.01,WeatherDisplay:10.34,2013-05-30 14:41:00,
2013-05-30 08:46:00,50.6,44.3,29.64,WNW,292,2.0,3.0,79,0.00,OVC,OVC,0.01,WeatherDisplay:10.34,2013-05-30 14:46:00,
2013-05-30 08:51:00,50.7,44.8,29.64,WNW,288,2.0,3.0,80,0.00,OVC,OVC,0.01,WeatherDisplay:10.34,2013-05-30 14:51:00,
2013-05-30 08:56:00,50.8,44.5,29.64,WNW,298,2.0,3.0,79,0.00,OVC,OVC,0.01,WeatherDisplay:10.34,2013-05-30 14:56:00,
2013-05-30 09:01:00,50.9,44.6,29.64,NW,322,6.0,6.0,79,0.00,OVC,OVC,0.01,WeatherDisplay:10.34,2013-05-30 15:01:00,
2013-05-30 09:06:00,51.0,44.7,29.65,NW,326,10.0,10.0,79,0.00,OVC,OVC,0.01,WeatherDisplay:10.34,2013-05-30 15:06:00,
2013-05-30 09:11:00,51.1,44.1,29.64,NW,316,7.0,7.0,77,0.00,OVC,OVC,0.01,WeatherDisplay:10.34,2013-05-30 15:11:00,
2013-05-30 09:16:00,51.2,44.2,29.64,NNW,330,8.0,9.0,77,0.00,OVC,OVC,0.01,WeatherDisplay:10.34,2013-05-30 15:16:00,
2013-05-30 09:21:00,51.2,44.2,29.64,NW,317,4.0,7.0,77,0.00,OVC,OVC,0.01,WeatherDisplay:10.34,2013-05-30 15:21:00,
2013-05-30 09:26:00,51.2,44.2,29.64,WNW,284,6.0,8.0,77,0.00,OVC,OVC,0.01,WeatherDisplay:10.34,2013-05-30 15:26:00,
2013-05-30 09:31:00,51.4,44.4,29.64,NNW,331,4.0,7.0,77,0.00,BKN,BKN,0.01,WeatherDisplay:10.34,2013-05-30 15:31:00,
2013-05-30 09:36:00,51.7,44.7,29.64,NW,310,2.0,5.0,77,0.00,BKN,BKN,0.01,WeatherDisplay:10.34,2013-05-30 15:36:00,
2013-05-30 09:41:00,52.2,44.2,29.64,WNW,288,5.0,7.0,74,0.00,BKN,BKN,0.01,WeatherDisplay:10.34,2013-05-30 15:41:00,
2013-05-30 09:46:00,52.7,44.3,29.64,NW,310,4.0,7.0,73,0.00,BKN,BKN,0.01,WeatherDisplay:10.34,2013-05-30 15:46:00,
2013-05-30 09:51:00,53.2,44.8,29.65,NNW,347,7.0,10.0,73,0.00,SCT,SCT,0.01,WeatherDisplay:10.34,2013-05-30 15:51:00,
2013-05-30 09:56:00,53.6,44.0,29.65,NW,319,6.0,8.0,70,0.00,SCT,SCT,0.01,WeatherDisplay:10.34,2013-05-30 15:56:00,
2013-05-30 10:01:00,54.0,44.1,29.65,NW,304,5.0,8.0,69,0.00,BKN,BKN,0.01,WeatherDisplay:10.34,2013-05-30 16:01:00,
2013-05-30 10:06:00,54.2,44.2,29.65,West,270,4.0,8.0,69,0.00,BKN,BKN,0.01,WeatherDisplay:10.34,2013-05-30 16:06:00,
2013-05-30 10:11:00,54.3,44.0,29.64,NNW,334,6.0,7.0,68,0.00,BKN,BKN,0.01,WeatherDisplay:10.34,2013-05-30 16:11:00,
2013-05-30 10:16:00,54.4,44.1,29.64,WNW,284,8.0,12.0,68,0.00,BKN,BKN,0.01,WeatherDisplay:10.34,2013-05-30 16:16:00,
2013-05-30 10:21:00,54.5,43.8,29.65,NW,321,4.0,8.0,67,0.00,OVC,OVC,0.01,WeatherDisplay:10.34,2013-05-30 16:21:00,
2013-05-30 10:26:00,54.6,44.2,29.65,NNW,343,5.0,8.0,68,0.00,OVC,OVC,0.01,WeatherDisplay:10.34,2013-05-30 16:26:00,
2013-05-30 10:31:00,54.7,44.0,29.65,NW,311,8.0,8.0,67,0.00,BKN,BKN,0.01,WeatherDisplay:10.34,2013-05-30 16:31:00,
2013-05-30 10:36:00,54.8,44.0,29.65,WNW,294,7.0,8.0,67,0.00,BKN,BKN,0.01,WeatherDisplay:10.34,2013-05-30 16:36:00,
2013-05-30 10:41:00,55.1,44.3,29.65,NW,311,9.0,9.0,67,0.00,BKN,BKN,0.01,WeatherDisplay:10.34,2013-05-30 16:41:00,
2013-05-30 10:46:00,55.4,44.2,29.65,WNW,298,8.0,9.0,66,0.00,BKN,BKN,0.01,WeatherDisplay:10.34,2013-05-30 16:46:00,
2013-05-30 10:51:00,55.6,44.4,29.65,NW,319,8.0,10.0,66,0.00,BKN,BKN,0.01,WeatherDisplay:10.34,2013-05-30 16:51:00,
2013-05-30 10:56:00,55.8,44.6,29.65,NW,325,9.0,9.0,66,0.00,BKN,BKN,0.01,WeatherDisplay:10.34,2013-05-30 16:56:00,
2013-05-30 11:01:00,55.8,44.2,29.65,NW,314,8.0,9.0,65,0.00,BKN,BKN,0.01,WeatherDisplay:10.34,2013-05-30 17:01:00,
2013-05-30 11:06:00,55.9,44.7,29.65,NNW,341,6.0,12.0,66,0.00,BKN,BKN,0.01,WeatherDisplay:10.34,2013-05-30 17:06:00,
2013-05-30 11:11:00,56.2,45.0,29.65,NNW,330,9.0,13.0,66,0.00,BKN,BKN,0.01,WeatherDisplay:10.34,2013-05-30 17:11:00,
2013-05-30 11:16:00,56.2,43.8,29.65,NW,313,10.0,15.0,63,0.00,BKN,BKN,0.01,WeatherDisplay:10.34,2013-05-30 17:16:00,
2013-05-30 11:21:00,56.1,44.5,29.65,WNW,286,6.0,9.0,65,0.00,BKN,BKN,0.01,WeatherDisplay:10.34,2013-05-30 17:21:00,
2013-05-30 11:26:00,56.3,45.1,29.65,WNW,291,9.0,14.0,66,0.00,BKN,BKN,0.01,WeatherDisplay:10.34,2013-05-30 17:26:00,
2013-05-30 11:31:00,56.1,44.5,29.65,North,360,9.0,9.0,65,0.00,OVC,OVC,0.01,WeatherDisplay:10.34,2013-05-30 17:31:00,
2013-05-30 11:36:00,56.1,44.5,29.65,WNW,290,8.0,12.0,65,0.00,BKN,BKN,0.01,WeatherDisplay:10.34,2013-05-30 17:36:00,
2013-05-30 11:41:00,56.2,44.6,29.65,NW,311,9.0,12.0,65,0.00,BKN,BKN,0.01,WeatherDisplay:10.34,2013-05-30 17:41:00,
2013-05-30 11:46:00,56.4,44.0,29.65,NNW,339,9.0,12.0,63,0.00,BKN,BKN,0.01,WeatherDisplay:10.34,2013-05-30 17:46:00,
2013-05-30 11:51:00,56.8,44.3,29.65,NNW,340,9.0,12.0,63,0.00,BKN,BKN,0.01,WeatherDisplay:10.34,2013-05-30 17:51:00,
2013-05-30 11:56:00,57.1,44.2,29.65,NNW,327,12.0,15.0,62,0.00,BKN,BKN,0.01,WeatherDisplay:10.34,2013-05-30 17:56:00,
2013-05-30 12:01:00,57.4,44.1,29.65,WNW,299,6.0,10.0,61,0.00,BKN,BKN,0.01,WeatherDisplay:10.34,2013-05-30 18:01:00,
2013-05-30 12:06:00,57.5,43.7,29.65,NNW,338,10.0,14.0,60,0.00,BKN,BKN,0.01,WeatherDisplay:10.34,2013-05-30 18:06:00,
2013-05-30 12:11:00,57.2,42.5,29.66,NNW,338,13.0,13.0,58,0.00,OVC,OVC,0.01,WeatherDisplay:10.34,2013-05-30 18:11:00,
2013-05-30 12:16:00,56.7,41.6,29.66,NW,311,10.0,15.0,57,0.00,BKN,BKN,0.01,WeatherDisplay:10.34,2013-05-30 18:16:00,
2013-05-30 12:21:00,56.9,43.2,29.66,NW,325,10.0,14.0,60,0.00,BKN,BKN,0.01,WeatherDisplay:10.34,2013-05-30 18:21:00,
2013-05-30 12:26:00,57.1,42.5,29.66,WNW,302,13.0,14.0,58,0.00,BKN,BKN,0.01,WeatherDisplay:10.34,2013-05-30 18:26:00,
2013-05-30 12:31:00,57.2,43.0,29.66,North,360,13.0,15.0,59,0.00,BKN,BKN,0.01,WeatherDisplay:10.34,2013-05-30 18:31:00,
2013-05-30 12:36:00,57.4,42.3,29.66,North,5,16.0,16.0,57,0.00,SCT,SCT,0.01,WeatherDisplay:10.34,2013-05-30 18:36:00,
2013-05-30 12:41:00,57.7,42.1,29.66,NW,306,12.0,14.0,56,0.00,SCT,SCT,0.01,WeatherDisplay:10.34,2013-05-30 18:41:00,
2013-05-30 12:46:00,58.1,43.4,29.66,NW,319,12.0,14.0,58,0.00,SCT,SCT,0.01,WeatherDisplay:10.34,2013-05-30 18:46:00,
2013-05-30 12:51:00,58.4,42.8,29.66,WNW,292,10.0,13.0,56,0.00,SCT,SCT,0.01,WeatherDisplay:10.34,2013-05-30 18:51:00,
2013-05-30 12:56:00,59.0,42.8,29.67,WSW,254,12.0,16.0,55,0.00,BKN,BKN,0.01,WeatherDisplay:10.34,2013-05-30 18:56:00,
2013-05-30 13:01:00,59.0,42.4,29.67,NNW,336,12.0,16.0,54,0.00,BKN,BKN,0.01,WeatherDisplay:10.34,2013-05-30 19:01:00,
2013-05-30 13:06:00,58.4,42.8,29.67,NW,311,14.0,14.0,56,0.00,BKN,BKN,0.01,WeatherDisplay:10.34,2013-05-30 19:06:00,
2013-05-30 13:11:00,58.4,42.8,29.66,West,271,16.0,16.0,56,0.00,SCT,SCT,0.01,WeatherDisplay:10.34,2013-05-30 19:11:00,
2013-05-30 13:16:00,58.3,42.2,29.66,NW,321,14.0,15.0,55,0.00,BKN,BKN,0.01,WeatherDisplay:10.34,2013-05-30 19:16:00,
2013-05-30 13:21:00,58.6,42.9,29.66,West,273,9.0,10.0,56,0.00,SCT,SCT,0.01,WeatherDisplay:10.34,2013-05-30 19:21:00,
2013-05-30 13:26:00,59.0,41.9,29.66,NNW,329,16.0,24.0,53,0.00,BKN,BKN,0.01,WeatherDisplay:10.34,2013-05-30 19:26:00,
2013-05-30 13:31:00,58.9,41.8,29.66,WSW,246,10.0,14.0,53,0.00,BKN,BKN,0.01,WeatherDisplay:10.34,2013-05-30 19:31:00,
2013-05-30 13:36:00,58.8,42.2,29.66,NW,309,16.0,23.0,54,0.00,BKN,BKN,0.01,WeatherDisplay:10.34,2013-05-30 19:36:00,
2013-05-30 13:41:00,59.0,41.9,29.65,NNW,332,17.0,17.0,53,0.00,BKN,BKN,0.01,WeatherDisplay:10.34,2013-05-30 19:41:00,
2013-05-30 13:46:00,58.9,41.3,29.65,NNW,340,19.0,20.0,52,0.00,SCT,SCT,0.01,WeatherDisplay:10.34,2013-05-30 19:46:00,
2013-05-30 13:51:00,58.7,41.6,29.65,North,360,15.0,23.0,53,0.00,OVC,OVC,0.01,WeatherDisplay:10.34,2013-05-30 19:51:00,
2013-05-30 13:56:00,58.1,40.6,29.66,NNW,336,13.0,15.0,52,0.00,OVC,OVC,0.01,WeatherDisplay:10.34,2013-05-30 19:56:00,
2013-05-30 14:01:00,58.3,42.7,29.66,NNW,346,9.0,14.0,56,0.00,OVC,OVC,0.01,WeatherDisplay:10.34,2013-05-30 20:01:00,
2013-05-30 14:06:00,58.3,41.2,29.66,NW,313,15.0,16.0,53,0.00,OVC,OVC,0.01,WeatherDisplay:10.34,2013-05-30 20:06:00,
2013-05-30 14:11:00,57.7,41.2,29.66,North,360,11.0,13.0,54,0.00,OVC,OVC,0.01,WeatherDisplay:10.34,2013-05-30 20:11:00,
2013-05-30 14:16:00,57.5,41.4,29.66,NNW,329,15.0,15.0,55,0.00,OVC,OVC,0.01,WeatherDisplay:10.34,2013-05-30 20:16:00,
2013-05-30 14:21:00,57.2,41.6,29.66,West,280,9.0,10.0,56,0.00,OVC,OVC,0.01,WeatherDisplay:10.34,2013-05-30 20:21:00,
2013-05-30 14:26:00,57.1,41.5,29.66,NW,311,15.0,15.0,56,0.00,OVC,OVC,0.01,WeatherDisplay:10.34,2013-05-30 20:26:00,
2013-05-30 14:32:00,57.0,41.0,29.67,North,355,19.0,22.0,55,0.00,BKN,BKN,0.01,WeatherDisplay:10.34,2013-05-30 20:32:00,
2013-05-30 14:37:00,56.9,40.9,29.66,NNW,336,23.0,25.0,55,0.00,OVC,OVC,0.01,WeatherDisplay:10.34,2013-05-30 20:37:00,
2013-05-30 14:42:00,56.7,40.7,29.66,North,355,26.0,26.0,55,0.00,OVC,OVC,0.01,WeatherDisplay:10.34,2013-05-30 20:42:00,
2013-05-30 14:47:00,56.7,41.2,29.66,NW,316,17.0,17.0,56,0.00,OVC,OVC,0.01,WeatherDisplay:10.34,2013-05-30 20:47:00,
2013-05-30 14:52:00,56.8,40.8,29.67,NW,314,20.0,22.0,55,0.00,BKN,BKN,0.01,WeatherDisplay:10.34,2013-05-30 20:52:00,
2013-05-30 14:57:00,56.9,41.8,29.67,NNW,333,10.0,16.0,57,0.00,OVC,OVC,0.01,WeatherDisplay:10.34,2013-05-30 20:57:00,
2013-05-30 15:02:00,57.1,42.0,29.67,WNW,301,11.0,23.0,57,0.00,OVC,OVC,0.01,WeatherDisplay:10.34,2013-05-30 21:02:00,
2013-05-30 15:07:00,57.1,41.1,29.67,NNW,333,20.0,22.0,55,0.00,OVC,OVC,0.01,WeatherDisplay:10.34,2013-05-30 21:07:00,
2013-05-30 15:12:00,57.1,40.6,29.67,NW,325,13.0,14.0,54,0.00,BKN,BKN,0.01,WeatherDisplay:10.34,2013-05-30 21:12:00,
2013-05-30 15:17:00,57.4,41.4,29.67,North,355,14.0,15.0,55,0.00,BKN,BKN,0.01,WeatherDisplay:10.34,2013-05-30 21:17:00,
2013-05-30 15:22:00,57.5,41.9,29.67,NW,319,15.0,15.0,56,0.00,BKN,BKN,0.01,WeatherDisplay:10.34,2013-05-30 21:22:00,
2013-05-30 15:27:00,57.4,40.9,29.67,NW,318,12.0,14.0,54,0.00,BKN,BKN,0.01,WeatherDisplay:10.34,2013-05-30 21:27:00,
2013-05-30 15:32:00,57.5,41.0,29.67,North,350,19.0,23.0,54,0.00,BKN,BKN,0.01,WeatherDisplay:10.34,2013-05-30 21:32:00,
2013-05-30 15:37:00,57.9,40.4,29.68,North,5,22.0,24.0,52,0.00,BKN,BKN,0.01,WeatherDisplay:10.34,2013-05-30 21:37:00,
2013-05-30 15:42:00,58.1,40.1,29.67,NNW,328,15.0,21.0,51,0.00,BKN,BKN,0.01,WeatherDisplay:10.34,2013-05-30 21:42:00,
2013-05-30 15:47:00,58.3,40.7,29.68,North,5,15.0,15.0,52,0.00,BKN,BKN,0.01,WeatherDisplay:10.34,2013-05-30 21:47:00,
2013-05-30 15:52:00,58.3,40.2,29.68,NNE,15,18.0,18.0,51,0.00,BKN,BKN,0.01,WeatherDisplay:10.34,2013-05-30 21:52:00,
2013-05-30 15:57:00,58.2,40.1,29.68,West,266,18.0,24.0,51,0.00,BKN,BKN,0.01,WeatherDisplay:10.34,2013-05-30 21:57:00,
2013-05-30 16:02:00,58.0,40.0,29.68,NNW,340,16.0,20.0,51,0.00,BKN,BKN,0.01,WeatherDisplay:10.34,2013-05-30 22:02:00,
2013-05-30 16:07:00,58.3,39.7,29.68,NW,315,21.0,23.0,50,0.00,BKN,BKN,0.01,WeatherDisplay:10.34,2013-05-30 22:07:00,
2013-05-30 16:12:00,58.4,39.3,29.69,WNW,296,19.0,20.0,49,0.00,BKN,BKN,0.01,WeatherDisplay:10.34,2013-05-30 22:12:00,
2013-05-30 16:17:00,58.1,38.5,29.69,North,355,20.0,20.0,48,0.00,BKN,BKN,0.01,WeatherDisplay:10.34,2013-05-30 22:17:00,
2013-05-30 16:23:00,58.0,40.5,29.69,WNW,300,13.0,13.0,52,0.00,SCT,SCT,0.01,WeatherDisplay:10.34,2013-05-30 22:23:00,
2013-05-30 16:28:00,58.2,39.6,29.69,WNW,293,15.0,16.0,50,0.00,BKN,BKN,0.01,WeatherDisplay:10.34,2013-05-30 22:28:00,
2013-05-30 16:33:00,58.3,39.7,29.69,NW,311,18.0,22.0,50,0.00,BKN,BKN,0.01,WeatherDisplay:10.34,2013-05-30 22:33:00,
2013-05-30 16:38:00,58.4,39.3,29.69,WNW,298,19.0,23.0,49,0.00,SCT,SCT,0.01,WeatherDisplay:10.34,2013-05-30 22:38:00,
2013-05-30 16:43:00,58.5,39.9,29.69,WNW,300,12.0,13.0,50,0.00,BKN,BKN,0.01,WeatherDisplay:10.34,2013-05-30 22:43:00,
2013-05-30 16:48:00,58.5,38.9,29.69,WNW,295,13.0,16.0,48,0.00,BKN,BKN,0.01,WeatherDisplay:10.34,2013-05-30 22:48:00,
2013-05-30 16:53:00,58.4,39.3,29.69,WNW,285,13.0,15.0,49,0.00,BKN,BKN,0.01,WeatherDisplay:10.34,2013-05-30 22:53:00,
2013-05-30 16:58:00,58.3,38.7,29.69,NNW,345,10.0,15.0,48,0.00,OVC,OVC,0.01,WeatherDisplay:10.34,2013-05-30 22:58:00,
2013-05-30 17:03:00,58.0,38.9,29.69,NNW,336,8.0,12.0,49,0.00,OVC,OVC,0.01,WeatherDisplay:10.34,2013-05-30 23:03:00,
2013-05-30 17:08:00,57.7,38.7,29.69,NW,325,14.0,16.0,49,0.00,OVC,OVC,0.01,WeatherDisplay:10.34,2013-05-30 23:08:00,
2013-05-30 17:13:00,57.6,38.0,29.69,West,281,25.0,25.0,48,0.00,BKN,BKN,0.01,WeatherDisplay:10.34,2013-05-30 23:13:00,
2013-05-30 17:18:00,57.5,37.4,29.69,NW,321,16.0,26.0,47,0.00,OVC,OVC,0.01,WeatherDisplay:10.34,2013-05-30 23:18:00,
2013-05-30 17:23:00,57.2,37.1,29.70,WNW,290,15.0,24.0,47,0.00,OVC,OVC,0.01,WeatherDisplay:10.34,2013-05-30 23:23:00,
2013-05-30 17:28:00,57.0,37.5,29.70,NNW,342,14.0,15.0,48,0.00,OVC,OVC,0.01,WeatherDisplay:10.34,2013-05-30 23:28:00,
2013-05-30 17:33:00,56.9,37.4,29.71,WNW,303,9.0,16.0,48,0.00,OVC,OVC,0.01,WeatherDisplay:10.34,2013-05-30 23:33:00,
2013-05-30 17:38:00,57.1,37.6,29.71,NNW,333,12.0,16.0,48,0.00,BKN,BKN,0.01,WeatherDisplay:10.34,2013-05-30 23:38:00,
2013-05-30 17:43:00,57.3,37.8,29.70,ENE,60,18.0,21.0,48,0.00,BKN,BKN,0.01,WeatherDisplay:10.34,2013-05-30 23:43:00,
2013-05-30 17:48:00,57.4,38.4,29.70,NW,316,9.0,13.0,49,0.00,BKN,BKN,0.01,WeatherDisplay:10.34,2013-05-30 23:48:00,
2013-05-30 17:53:00,57.7,38.7,29.70,NW,326,11.0,16.0,49,0.00,SCT,SCT,0.01,WeatherDisplay:10.34,2013-05-30 23:53:00,
2013-05-30 17:58:00,57.7,38.7,29.70,North,10,18.0,22.0,49,0.00,SCT,SCT,0.01,WeatherDisplay:10.34,2013-05-30 23:58:00,
2013-05-30 18:03:00,57.6,38.0,29.70,NW,306,11.0,13.0,48,0.00,SCT,SCT,0.01,WeatherDisplay:10.34,2013-05-31 00:03:00,
2013-05-30 18:08:00,57.7,38.7,29.70,WNW,298,16.0,17.0,49,0.00,SCT,SCT,0.01,WeatherDisplay:10.34,2013-05-31 00:08:00,
2013-05-30 18:13:00,57.6,38.0,29.71,North,355,15.0,16.0,48,0.00,BKN,BKN,0.01,WeatherDisplay:10.34,2013-05-31 00:13:00,
2013-05-30 18:18:00,57.4,38.9,29.71,North,355,11.0,13.0,50,0.00,BKN,BKN,0.01,WeatherDisplay:10.34,2013-05-31 00:18:00,
2013-05-30 18:23:00,57.1,38.1,29.71,NW,306,15.0,17.0,49,0.00,BKN,BKN,0.01,WeatherDisplay:10.34,2013-05-31 00:23:00,
2013-05-30 18:28:00,56.8,37.3,29.71,NNW,332,14.0,14.0,48,0.00,BKN,BKN,0.01,WeatherDisplay:10.34,2013-05-31 00:28:00,
2013-05-30 18:33:00,56.9,37.4,29.71,WNW,298,18.0,21.0,48,0.00,BKN,BKN,0.01,WeatherDisplay:10.34,2013-05-31 00:33:00,
2013-05-30 18:38:00,56.9,36.9,29.71,NNW,341,13.0,20.0,47,0.00,BKN,BKN,0.01,WeatherDisplay:10.34,2013-05-31 00:38:00,
2013-05-30 18:43:00,57.0,37.5,29.71,WNW,302,12.0,16.0,48,0.00,BKN,BKN,0.01,WeatherDisplay:10.34,2013-05-31 00:43:00,
2013-05-30 18:48:00,57.0,37.0,29.71,WNW,299,13.0,14.0,47,0.00,BKN,BKN,0.01,WeatherDisplay:10.34,2013-05-31 00:48:00,
2013-05-30 18:53:00,57.0,37.0,29.71,NNW,333,13.0,21.0,47,0.00,BKN,BKN,0.01,WeatherDisplay:10.34,2013-05-31 00:53:00,
2013-05-30 18:58:00,56.9,37.4,29.71,WNW,291,14.0,16.0,48,0.00,BKN,BKN,0.01,WeatherDisplay:10.34,2013-05-31 00:58:00,
2013-05-30 19:03:00,56.8,36.2,29.71,WNW,285,12.0,15.0,46,0.00,BKN,BKN,0.01,WeatherDisplay:10.34,2013-05-31 01:03:00,
2013-05-30 19:08:00,56.7,38.3,29.71,NNW,334,9.0,10.0,50,0.00,BKN,BKN,0.01,WeatherDisplay:10.34,2013-05-31 01:08:00,
2013-05-30 19:13:00,56.4,38.5,29.72,West,272,11.0,15.0,51,0.00,BKN,BKN,0.01,WeatherDisplay:10.34,2013-05-31 01:13:00,
2013-05-30 19:18:00,56.3,38.9,29.72,NNW,348,16.0,20.0,52,0.00,BKN,BKN,0.01,WeatherDisplay:10.34,2013-05-31 01:18:00,
2013-05-30 19:23:00,56.2,37.3,29.72,North,10,11.0,16.0,49,0.00,BKN,BKN,0.01,WeatherDisplay:10.34,2013-05-31 01:23:00,
2013-05-30 19:28:00,56.3,36.3,29.72,NW,315,17.0,20.0,47,0.00,BKN,BKN,0.01,WeatherDisplay:10.34,2013-05-31 01:28:00,
2013-05-30 19:33:00,56.2,37.3,29.72,North,355,13.0,15.0,49,0.00,BKN,BKN,0.01,WeatherDisplay:10.34,2013-05-31 01:33:00,
2013-05-30 19:38:00,56.1,35.6,29.72,NNW,329,15.0,15.0,46,0.00,BKN,BKN,0.01,WeatherDisplay:10.34,2013-05-31 01:38:00,
2013-05-30 19:43:00,56.0,36.0,29.72,NW,304,16.0,22.0,47,0.00,OVC,OVC,0.01,WeatherDisplay:10.34,2013-05-31 01:43:00,
2013-05-30 19:49:00,55.8,35.3,29.72,NW,323,13.0,14.0,46,0.00,OVC,OVC,0.01,WeatherDisplay:10.34,2013-05-31 01:49:00,
2013-05-30 19:54:00,55.7,35.8,29.72,NW,319,15.0,15.0,47,0.00,OVC,OVC,0.01,WeatherDisplay:10.34,2013-05-31 01:54:00,
2013-05-30 19:59:00,55.5,37.7,29.72,NW,312,15.0,20.0,51,0.00,OVC,OVC,0.01,WeatherDisplay:10.34,2013-05-31 01:59:00,
2013-05-30 20:04:00,55.0,38.6,29.72,WNW,292,14.0,17.0,54,0.00,OVC,OVC,0.01,WeatherDisplay:10.34,2013-05-31 02:04:00,
2013-05-30 20:09:00,54.5,38.7,29.72,NW,304,10.0,14.0,55,0.00,OVC,OVC,0.01,WeatherDisplay:10.34,2013-05-31 02:09:00,
2013-05-30 20:14:00,54.2,39.3,29.74,NW,307,14.0,17.0,57,0.00,OVC,OVC,0.01,WeatherDisplay:10.34,2013-05-31 02:14:00,
2013-05-30 20:19:00,53.9,39.5,29.74,NNW,334,15.0,20.0,58,0.00,OVC,OVC,0.01,WeatherDisplay:10.34,2013-05-31 02:19:00,
2013-05-30 20:24:00,53.6,39.2,29.74,NNW,344,11.0,13.0,58,0.00,OVC,OVC,0.01,WeatherDisplay:10.34,2013-05-31 02:24:00,
2013-05-30 20:29:00,53.5,39.1,29.74,WNW,303,13.0,14.0,58,0.00,OVC,OVC,0.01,WeatherDisplay:10.34,2013-05-31 02:29:00,
2013-05-30 20:34:00,53.4,39.0,29.74,NNW,327,7.0,13.0,58,0.00,OVC,OVC,0.01,WeatherDisplay:10.34,2013-05-31 02:34:00,
2013-05-30 20:39:00,53.3,39.8,29.74,NW,323,12.0,13.0,60,0.00,OVC,OVC,0.01,WeatherDisplay:10.34,2013-05-31 02:39:00,
2013-05-30 20:44:00,53.1,39.6,29.75,NW,321,9.0,13.0,60,0.00,OVC,OVC,0.01,WeatherDisplay:10.34,2013-05-31 02:44:00,
2013-05-30 20:49:00,53.1,39.1,29.75,North,355,9.0,13.0,59,0.00,OVC,OVC,0.01,WeatherDisplay:10.34,2013-05-31 02:49:00,
2013-05-30 20:54:00,53.2,38.8,29.75,NW,325,7.0,10.0,58,0.00,OVC,OVC,0.01,WeatherDisplay:10.34,2013-05-31 02:54:00,
2013-05-30 20:59:00,53.2,39.7,29.75,North,350,5.0,8.0,60,0.00,OVC,OVC,0.01,WeatherDisplay:10.34,2013-05-31 02:59:00,
2013-05-30 21:04:00,53.1,38.3,29.75,NNW,331,8.0,9.0,57,0.00,,,0.01,WeatherDisplay:10.34,2013-05-31 03:04:00,
2013-05-30 21:09:00,53.2,38.4,29.75,West,261,8.0,10.0,57,0.00,,,0.01,WeatherDisplay:10.34,2013-05-31 03:09:00,
2013-05-30 21:14:00,53.2,37.9,29.75,WNW,296,3.0,5.0,56,0.00,,,0.01,WeatherDisplay:10.34,2013-05-31 03:14:00,
2013-05-30 21:19:00,53.2,36.5,29.76,SW,227,8.0,9.0,53,0.00,,,0.01,WeatherDisplay:10.34,2013-05-31 03:19:00,
2013-05-30 21:24:00,53.3,36.1,29.76,NNW,329,7.0,13.0,52,0.00,,,0.01,WeatherDisplay:10.34,2013-05-31 03:24:00,
2013-05-30 21:29:00,53.3,36.6,29.75,WNW,299,9.0,15.0,53,0.00,,,0.01,WeatherDisplay:10.34,2013-05-31 03:29:00,
2013-05-30 21:34:00,53.1,36.9,29.76,NNW,336,10.0,12.0,54,0.00,,,0.01,WeatherDisplay:10.34,2013-05-31 03:34:00,
2013-05-30 21:39:00,52.9,37.6,29.76,NNW,329,9.0,14.0,56,0.00,,,0.01,WeatherDisplay:10.34,2013-05-31 03:39:00,
2013-05-30 21:44:00,52.6,38.2,29.76,NW,309,10.0,13.0,58,0.00,,,0.01,WeatherDisplay:10.34,2013-05-31 03:44:00,
2013-05-30 21:49:00,52.4,38.5,29.76,NW,320,5.0,8.0,59,0.00,,,0.01,WeatherDisplay:10.34,2013-05-31 03:49:00,
2013-05-30 21:54:00,52.1,38.6,29.76,NW,304,10.0,12.0,60,0.00,,,0.01,WeatherDisplay:10.34,2013-05-31 03:54:00,
2013-05-30 21:59:00,51.9,38.4,29.76,NW,321,7.0,9.0,60,0.00,,,0.01,WeatherDisplay:10.34,2013-05-31 03:59:00,
2013-05-30 22:01:00,51.9,38.4,29.76,NNW,336,3.0,7.0,60,0.00,,,0.01,WeatherDisplay:10.34,2013-05-31 04:01:00,
2013-05-30 22:02:00,51.8,38.3,29.76,NW,321,6.0,9.0,60,0.00,,,0.01,WeatherDisplay:10.34,2013-05-31 04:02:00,
2013-05-30 22:03:00,51.8,38.8,29.76,WNW,292,7.0,8.0,61,0.00,,,0.01,WeatherDisplay:10.34,2013-05-31 04:03:00,
2013-05-30 22:04:00,51.8,38.8,29.76,West,275,4.0,8.0,61,0.00,,,0.01,WeatherDisplay:10.34,2013-05-31 04:04:00,
2013-05-30 22:09:00,51.7,38.7,29.76,NW,321,6.0,8.0,61,0.00,,,0.01,WeatherDisplay:10.34,2013-05-31 04:09:00,
2013-05-30 22:14:00,51.5,38.1,29.77,WNW,292,6.0,10.0,60,0.00,,,0.01,WeatherDisplay:10.34,2013-05-31 04:14:00,
2013-05-30 22:19:00,51.4,38.4,29.77,North,9,8.0,10.0,61,0.00,,,0.01,WeatherDisplay:10.34,2013-05-31 04:19:00,
2013-05-30 22:24:00,51.3,38.3,29.78,West,277,8.0,12.0,61,0.00,,,0.01,WeatherDisplay:10.34,2013-05-31 04:24:00,
2013-05-30 22:29:00,51.3,38.3,29.78,WNW,287,8.0,10.0,61,0.00,,,0.01,WeatherDisplay:10.34,2013-05-31 04:29:00,
2013-05-30 22:34:00,51.2,37.8,29.77,NW,314,8.0,12.0,60,0.00,,,0.01,WeatherDisplay:10.34,2013-05-31 04:34:00,
2013-05-30 22:39:00,51.2,38.2,29.77,North,355,9.0,14.0,61,0.00,,,0.01,WeatherDisplay:10.34,2013-05-31 04:39:00,
2013-05-30 22:44:00,51.1,38.1,29.77,NW,314,11.0,12.0,61,0.00,,,0.01,WeatherDisplay:10.34,2013-05-31 04:44:00,
2013-05-30 22:49:00,51.0,38.0,29.77,NW,307,4.0,9.0,61,0.00,,,0.01,WeatherDisplay:10.34,2013-05-31 04:49:00,
2013-05-30 22:54:00,50.9,37.5,29.77,WNW,299,8.0,14.0,60,0.00,,,0.01,WeatherDisplay:10.34,2013-05-31 04:54:00,
2013-05-30 22:59:00,50.9,37.5,29.77,WNW,294,11.0,15.0,60,0.00,,,0.01,WeatherDisplay:10.34,2013-05-31 04:59:00,
2013-05-30 23:04:00,50.9,37.5,29.77,WNW,296,9.0,15.0,60,0.00,,,0.01,WeatherDisplay:10.34,2013-05-31 05:04:00,
2013-05-30 23:09:00,50.8,38.2,29.77,WNW,292,10.0,12.0,62,0.00,,,0.01,WeatherDisplay:10.34,2013-05-31 05:09:00,
2013-05-30 23:14:00,50.8,38.2,29.77,WNW,298,4.0,8.0,62,0.00,,,0.01,WeatherDisplay:10.34,2013-05-31 05:14:00,
2013-05-30 23:19:00,50.6,38.1,29.77,WNW,291,9.0,14.0,62,0.00,,,0.01,WeatherDisplay:10.34,2013-05-31 05:19:00,
2013-05-30 23:24:00,50.6,38.1,29.77,NW,319,6.0,10.0,62,0.00,,,0.01,WeatherDisplay:10.34,2013-05-31 05:24:00,
2013-05-30 23:29:00,50.6,38.1,29.77,WNW,286,7.0,8.0,62,0.00,,,0.01,WeatherDisplay:10.34,2013-05-31 05:29:00,
2013-05-30 23:34:00,50.6,38.1,29.77,NW,319,14.0,16.0,62,0.00,,,0.01,WeatherDisplay:10.34,2013-05-31 05:34:00,
2013-05-30 23:39:00,50.8,37.8,29.77,WNW,300,6.0,9.0,61,0.00,,,0.01,WeatherDisplay:10.34,2013-05-31 05:39:00,
2013-05-30 23:44:00,50.8,37.8,29.78,NNW,333,10.0,14.0,61,0.00,,,0.01,WeatherDisplay:10.34,2013-05-31 05:44:00,
2013-05-30 23:49:00,50.8,37.8,29.78,WNW,303,4.0,8.0,61,0.00,,,0.01,WeatherDisplay:10.34,2013-05-31 05:49:00,
2013-05-30 23:54:00,50.7,37.3,29.78,NW,313,10.0,12.0,60,0.00,,,0.01,WeatherDisplay:10.34,2013-05-31 05:54:00,
2013-05-30 23:59:00,50.8,37.0,29.78,NW,306,7.0,13.0,59,0.00,,,0.01,WeatherDisplay:10.34,2013-05-31 05:59:00,